User: anonymous   Login
Location: Beadle
(51.4667°N, 109.0000°W)
Time: 01:22:45
(UTC+00:00)
Language:

CAS-4A - Orbit

View from above orbital plane
View from above orbital plane
View from above satellite
View from above satellite

Ground track
Ground track

The orbit data is extracted from the following two-line orbital elements,

1 42761U 17034D   22182.56079549  .00001950  00000-0  12409-3 0  9999
2 42761  43.0176 253.7110 0009365  11.6138 129.6426 15.12087318278491
Epoch (UTC): 01 July 2022 13:27:32
Eccentricity: 0.0009365
inclination: 43.0176°
perigee height: 523 km
apogee height: 536 km
right ascension of ascending node: 253.7110°
argument of perigee: 11.6138°
revolutions per day: 15.12087318
mean anomaly at epoch: 129.6426°
orbit number at epoch: 27849

The dashed part of the orbit path shows where the satellite is in the earth's shadow,  

DLR